Flag for U.S.A. Weather past 2 weeks in Wilmington, North Carolina, U.S.A.

Now
51 °F

Clear.


Feels Like: 51 °F
Forecast: 47 / 70 °F
Wind: No wind

Location: New Hanover International Airport

Current Time: Dec 27, 2014 at 8:07:55 PM

Latest Report: Dec 27, 2014 at 6:53 PM


Visibility: 10 mi

Pressure: 30.27 "Hg

Humidity: 80%

Dew point: 45 °F

Location of WilmingtonLocation

Historic Weather in Wilmington — Graph

°F

Wilmington temperature yesterday

Maximum temperature yesterday: 61 °F (at 1:53 PM)
Minimum temperature yesterday: 35 °F (at 6:53 AM)
Average temperature yesterday: 46 °F

Past Weeks' High & Low Weather Summary

 TemperatureHumidityPressure
High72 °F (Dec 24, 2:53 PM)100% (Dec 18, 1:53 AM)30.37 "Hg (Dec 18, 1:53 AM)
Low31 °F (Dec 13, 5:53 AM)21% (Dec 13, 1:53 PM)29.74 "Hg (Dec 24, 10:53 PM)
Average48 °F79%30.09 "Hg
* Reported Dec 12 6:53 PM — Dec 27 6:53 PM, Wilmington, Weather by CustomWeather, © 2014

Note: Actual official high and low records may vary slightly from our data, if they occured in-between our weather recording intervals... More about our weather records

Advertising

Wilmington weather history for previous 24 hours

 ConditionsComfort  
Time TempWeatherWind HumidityBarometerVisibility
6:53 PM
Dec 27
51 °FClear.No wind80%30.27 "Hg10 mi
5:53 PM53 °FClear.No wind66%30.26 "Hg10 mi
4:53 PM57 °FSunny.5 mph55%30.24 "Hg10 mi
3:53 PM61 °FSunny.6 mph52%30.24 "Hg10 mi
2:53 PM63 °FSunny.7 mph50%30.24 "Hg10 mi
1:53 PM64 °FSunny.6 mph47%30.25 "Hg10 mi
12:53 PM63 °FSunny.3 mph43%30.27 "Hg10 mi
11:53 AM59 °FSunny.3 mph49%30.31 "Hg10 mi
10:53 AM58 °FSunny.No wind56%30.36 "Hg10 mi
9:53 AM52 °FSunny.No wind72%30.37 "Hg10 mi
8:53 AM45 °FSunny.No wind86%30.34 "Hg10 mi
7:53 AM37 °FSunny.No wind89%30.32 "Hg10 mi
6:53 AM35 °FClear.No wind92%30.31 "Hg10 mi
5:53 AM34 °FFog.No wind100%30.30 "Hg3 mi
4:53 AM36 °FClear.No wind92%30.29 "Hg10 mi
3:53 AM36 °FClear.No wind92%30.29 "Hg10 mi
2:53 AM37 °FClear.No wind93%30.29 "Hg9 mi
1:53 AM37 °FClear.No wind96%30.31 "Hg8 mi
12:53 AM38 °FClear.No wind93%30.31 "Hg10 mi
11:53 PM
Dec 26
39 °FClear.No wind96%30.31 "Hg7 mi
10:53 PM40 °FClear.No wind93%30.32 "Hg8 mi
9:53 PM40 °FClear.No wind93%30.33 "Hg10 mi
8:53 PM42 °FClear.No wind92%30.32 "Hg8 mi
Weather by CustomWeather, © 2014

See weather overviewHow to use our weather pages